Regional Weather Roundup
Issued by NWS

Home | Current Version | Previous Version | Text Only | Print | Product List | Glossary On
Versions: 1 2 3 4 5 6 7 8 9 10 11 12 13 14 15 16 17 18 19 20 21 22 23 24 25 26 27 28 29 30 31 32 33 34 35 36 37 38 39 40 41 42 43 44 45 46 47 48 49 50
000
ASUS44 KOUN 010010
RWROK

WEATHER ROUNDUP FOR OKLAHOMA
NATIONAL WEATHER SERVICE NORMAN OK
700 PM CDT THU JUL 31 2014

NOTE: "FAIR" INDICATES FEW OR NO CLOUDS BELOW 12,000 FEET WITH NO
      SIGNIFICANT WEATHER AND/OR OBSTRUCTIONS TO VISIBILITY.

OKZ001>007-009>012-014-015-017-010100-
NORTHWEST OKLAHOMA AND THE PANHANDLE

CITY           SKY/WX    TMP DP  RH WIND       PRES   REMARKS
GAGE           SUNNY     79  54  41 NE8       30.09F
6HR MIN TEMP:  76; 6HR MAX TEMP:  81;

$$

OKZ016-021>023-033>039-044-045-010100-
SOUTHWEST OKLAHOMA

CITY           SKY/WX    TMP DP  RH WIND       PRES   REMARKS
LAWTON/REGL    MOSUNNY   78  64  61 NE9       30.04S
6HR MIN TEMP:  74; 6HR MAX TEMP:  81;

LAWTON/FT SILL PTSUNNY   80  65  60 E12       30.03F
FREDERICK      CLOUDY    78  65  63 NE12      30.02F
CLINTON        MOSUNNY   77  59  53 NE9       30.09S
HOBART         MOSUNNY   78  62  57 NE10      30.07S
ALTUS AFB      MOSUNNY   79  64  61 NE8       30.05F
$$

OKZ018>020-024>031-010100-
CENTRAL OKLAHOMA

CITY           SKY/WX    TMP DP  RH WIND       PRES   REMARKS
OKLAHOMA CITY  PTSUNNY   75  66  73 E9        30.05S
6HR MIN TEMP:  73; 6HR MAX TEMP:  80; 6HR PCP: TRACE;

OKC/WILEY POST PTSUNNY   75  66  73 E10       30.05F
OKC/TINKER AFB MOSUNNY   73  67  82 NE9       30.05F
STILLWATER     SUNNY     78  66  66 E5        30.04F
GUTHRIE        MOSUNNY   77  66  68 E7        30.05F
$$

OKZ008-013-054>072-010100-
NORTHEAST OKLAHOMA

CITY           SKY/WX    TMP DP  RH WIND       PRES   REMARKS
TULSA          PTSUNNY   76  67  73 SE3       30.03F
6HR MIN TEMP:  72; 6HR MAX TEMP:  76; 6HR PCP: TRACE;

TULSA/JONES    CLOUDY    75  67  76 NE3       30.04F
PONCA CITY     SUNNY     80  62  54 NE5       30.04F
BARTLESVILLE   PTSUNNY   78  68  71 SW5       30.04F
MUSKOGEE       CLOUDY    74  67  78 SE6       30.05S
$$

OKZ032-040>043-046>053-073>077-010100-
SOUTH CENTRAL/SOUTHEAST OKLAHOMA

CITY           SKY/WX    TMP DP  RH WIND       PRES   REMARKS
ARDMORE/DWNTWN CLOUDY    72  64  78 E6        30.02F
MCALESTER      CLOUDY    72  66  81 VRB5      30.04F
$$



USA.gov is the U.S. government's official web portal to all federal, state and local government web resources and services.